CAPE
2334 2404 2349 2189 1992 1919 1911 1942 1741 1676 1694 1948 1731 1744 1430 1767 1825 2186 2014 2068 1901 1854 2070 2158 2419 2445 2414 2593 2911 2702 2820 2789 3164 3581 3597 3132 3507 3470 3638 3497 3798 3851 3848 3666 3644 2817 2768 3124 3411 3533 3795 3585 3730 3084 2536 2619 2246 1934 1729 1544 1483 2070 2124 2054 2602 2515 2630 2946 2861 2828 2685 2355 2464 2236 2000 1948 1903 1874 1828 1708 1586 1410 1095 917 866
2226 2318 2292 2178 1955 2015 1933 1951 1676 1620 1823 1332 1376 1486 1394 1450 1732 1991 1644 1857 1805 1705 2389 2232 2283 2368 2218 2193 2273 2665 2769 2812 3066 3137 3502 3435 4199 3755 3616 3523 3541 3594 3831 3853 3616 3673 2481 2681 3011 3427 3546 3136 3012 3263 2935 2329 1767 1503 1448 1540 1369 1921 1710 1467 1664 2453 2392 2432 2376 2546 2517 2520 2382 2071 2005 2074 2107 2070 2028 1886 1634 1173 795 1172 1007
1866 2039 2052 1944 1880 2081 1964 1791 1628 1551 1426 1377 1413 1387 1278 1312 1496 1743 1598 1811 1657 1874 2024 2080 2310 2171 2108 2025 1901 2627 2813 2907 2968 3008 3279 3576 3752 3754 3689 3402 3629 4054 4125 3949 3829 3554 3307 3236 3312 3208 2967 2726 2564 2306 2020 1728 1750 1608 1506 1313 1190 1218 1406 1487 1951 2517 2590 2296 2337 2412 2307 2303 2220 2086 2120 2181 2221 2282 2169 1561 1145 1538 1499 1516 1558
1421 1581 1623 1590 1440 1821 1816 1781 1601 1509 1426 1353 1226 1110 1063 1107 1780 1596 1440 1236 1633 1460 1948 1941 2201 2049 2044 2440 2490 2807 2913 3079 2971 2757 3192 3502 3502 3410 3269 3450 3629 3920 4028 3898 3589 3043 2954 2892 2567 2480 2699 2510 2404 2518 2198 1239 929 1195 1205 1138 1140 1240 1501 1515 2058 2352 1782 2059 2369 2424 2084 1984 2116 2262 2294 2290 2336 1909 1450 1591 1647 1704 2017 2356 2414
1166 1259 1364 1388 1207 1259 1446 1554 1562 1531 1520 1426 1323 1193 1105 1135 1743 1331 1230 1128 1232 1680 1819 1812 2037 2275 2032 2887 2550 2515 2438 2778 2977 2902 3255 3384 3415 3393 3521 3123 3348 3397 3234 3035 3809 2898 2679 2573 2557 2484 2260 2072 1852 1599 1384 1283 1276 1236 1238 1570 2035 2038 2687 2416 2580 2745 2154 1767 1525 1872 2172 2413 2418 2402 2372 2345 1456 1725 1872 1927 2003 2252 2484 2592 2548
1084 1052 1256 1206 876 1003 1114 1207 1421 1434 1433 1364 1158 1025 988 1041 1168 1510 1283 1224 1238 1192 1451 1794 2267 2648 2112 2285 2547 2820 2700 2787 3121 3097 2778 2948 3018 3239 3526 3295 2900 2737 2896 3094 3152 3164 2706 2586 2378 1968 1754 1490 1774 1888 1689 1536 1793 971 808 689 759 2013 1422 925 1014 1080 1894 2160 2304 2509 2370 2036 1417 1255 1079 1594 1899 2002 2088 2200 2341 2525 2579 2644 2589
1020 881 1116 1466 972 980 1232 695 885 1234 1219 1108 972 833 762 662 728 1255 1281 1238 1200 1085 963 1710 2424 2212 2441 2400 2354 2691 2958 2989 3054 2968 2746 2689 2616 2969 3088 3098 2947 2750 2868 2880 2815 2614 2436 2212 2027 1973 1946 1758 1413 1262 1423 1600 1618 1331 1301 1266 1958 1983 1981 1866 2508 2459 2029 1756 1768 1783 1800 1688 1460 1337 1565 1912 2113 2100 2336 2564 2585 2505 2538 2643 2575
1148 1039 917 1503 1707 1321 1455 1424 782 1167 1282 891 777 567 487 547 472 592 1267 1242 1158 1080 1471 1559 1683 2229 2348 2482 2346 2547 2823 2808 2781 3097 3054 2726 2649 2804 2383 2332 2406 2614 2399 2248 2154 1938 1607 1867 1931 1840 1948 1899 1541 1304 1110 985 1130 1242 1947 1608 1231 1314 1348 1888 2070 2030 1963 2238 2414 2392 2162 1874 1657 1847 2045 1954 2197 2259 2721 2826 2687 2514 2532 2510 2485
2475 2551 2004 2428 2203 1464 1286 1746 1454 1956 2521 2419 3141 1648 1104 1227 1391 1160 1102 1218 1186 1076 1151 1101 1452 1517 2328 2580 2641 2446 2658 2858 2602 2909 3107 2911 2551 2454 2365 2708 2401 1870 1924 2327 2002 1667 1834 1359 1058 1153 806 3925 2757 2658 1469 1904 1762 1368 1306 1118 1696 1255 2071 2888 2944 3061 3033 2954 2636 2512 2269 1708 1507 1694 2121 2155 2349 2622 2894 2774 2608 2525 2427 2269 2218
3508 2962 2441 2288 2010 1414 1533 1685 1919 1860 1926 2094 2129 2771 2539 2379 2339 2279 1156 1084 1082 966 900 925 952 851 830 1225 1580 1850 1962 1916 2315 2878 2968 2617 2419 2214 1893 2259 1786 2239 2426 2080 2000 1921 1749 1580 1474 1828 1376 1104 954 1353 3063 2871 2345 1308 1094 1469 1547 2004 2402 2279 2105 2098 2239 2057 1980 2004 1732 1536 1612 2056 2261 2530 2747 3013 2822 2695 2522 2356 2147 1974 1796
3277 3145 2198 1918 2098 1826 1290 1467 1794 1692 1937 1663 1780 1994 2165 2551 2696 2226 1704 1494 1247 928 914 796 747 713 674 622 701 808 1223 1299 1338 1248 1562 1926 2692 1991 2123 2784 2147 1746 1678 1891 2100 2173 1990 1708 1495 1805 3238 3738 2755 3775 3108 2919 2770 2680 2197 2574 2768 1726 1397 1224 987 960 990 1086 1358 1569 1568 1610 1718 1978 2397 2868 3037 3004 2832 2682 2484 2184 1994 1801 1667
2015 2220 2721 2421 2248 2190 2044 1868 1767 1805 1825 1492 1482 1658 1639 1765 1774 1806 1737 1403 1192 1115 958 770 676 778 1042 680 740 891 859 1086 1263 1180 881 848 1557 2012 1971 1986 2284 2124 2190 2077 1971 1975 1692 1349 970 844 1207 2762 3340 3365 3589 3904 2828 2591 2642 2709 2690 2904 2167 1675 1794 1978 1864 1626 1284 1116 1459 1552 1617 2216 2488 2982 3096 2974 2764 2568 2270 1999 1821 1673 1559
1770 1708 1536 1673 2504 2535 2418 2176 2040 2298 2346 1987 1579 1655 1755 1869 1807 1813 2002 1718 1433 1091 1034 818 590 733 1062 614 674 1026 768 988 1126 1052 766 532 793 1495 1639 1630 1613 1731 1705 1504 1438 1407 1339 1262 1756 2381 2144 2642 1868 2792 3384 3929 4439 2943 3100 3408 3232 2616 2146 2178 2630 2956 3156 3097 2777 2280 2127 2515 2602 2565 2681 3122 3166 2829 2462 2033 1765 1636 1557 1478 1448
1655 1578 1787 1715 1647 1988 2024 2232 2260 2295 2404 2392 2066 1747 1967 2266 2071 2179 2043 1877 1818 1484 1289 918 712 1186 1754 1121 922 803 804 780 842 842 809 632 543 755 1143 1349 1290 904 624 801 2324 2877 3266 2951 2217 1563 1618 1416 1437 1589 2433 3091 3968 4044 3642 3272 3392 4504 4049 3596 3487 3370 3090 2806 2744 2737 2733 2643 2692 2812 3046 3380 2431 1794 1626 1462 1371 1300 1308 1324 1316
1514 1416 1332 1212 1301 1688 1791 1961 2059 2113 2079 2132 2168 1988 2034 2118 2048 1985 1908 1785 1737 1722 1430 1071 1257 1685 1475 1554 966 1052 1047 826 833 667 591 536 502 579 1009 1840 1335 1286 1159 1662 2773 2973 3280 3183 2096 1766 1698 1586 1462 1386 1554 2034 2778 3424 3819 3725 3548 3186 3435 3363 3342 3195 3084 3028 2908 2656 2570 2565 2861 2636 1846 1657 1566 1413 1413 1340 1331 1414 1415 1378 1459
1289 1210 1198 994 1016 1188 1278 1344 1436 1491 1415 1391 1466 1643 1774 2090 1967 1838 1790 1716 1618 1565 1602 1421 1184 1376 1296 1211 894 990 1062 1076 1018 899 667 508 792 1705 1799 1912 2111 1760 1830 1991 2403 2646 2726 2468 1984 1756 1516 1436 1430 1419 1508 1861 2358 2468 2608 2811 2901 3019 2863 3840 3070 2990 2984 2597 2340 2184 2020 1912 1818 1721 1573 1156 736 740 704 824 730 880 1007 1460 1910
1188 1119 1060 1018 1005 968 902 897 926 1043 1174 1201 1128 1162 1386 1557 1733 1642 1442 1515 1543 1605 1654 1635 1576 1391 1199 1119 1100 940 950 982 919 791 755 765 989 1531 2246 2799 2121 1742 1888 2115 1972 1996 1674 1597 1676 1656 1674 1685 1610 1516 1498 1494 1484 1580 1677 1738 1723 1664 2063 1920 1944 1992 2019 1984 1949 1939 1935 1836 1590 991 618 383 0 359 528 612 1072 1277 1473 1743 1834
1030 774 826 825 619 530 562 740 734 897 965 1046 987 964 968 1060 1205 1210 1195 1242 1173 1104 1163 1354 1530 1559 1382 1199 1073 894 975 995 931 876 826 884 971 1270 1912 2581 2471 2132 1888 1878 1492 1691 2014 1278 1274 1352 1456 1575 1568 1537 1536 1482 1432 1370 1307 1198 999 936 1176 1150 1411 1745 1946 1994 1925 1697 1387 941 594 447 278 140 498 650 928 1299 1466 1457 1702 1927 1726
786 740 722 743 715 602 600 669 696 716 656 541 685 782 836 910 910 916 944 913 849 799 788 813 898 886 877 945 1081 974 957 988 1008 1035 977 866 1013 1284 2130 2345 2189 1958 1878 1639 1473 1307 1186 1083 1053 1110 1161 1214 1247 1295 1294 1229 1182 1071 971 872 825 776 698 637 702 828 905 902 868 677 559 439 373 308 430 431 859 1414 914 854 968 1431 1123 879 1194
581 610 573 508 436 412 448 532 585 592 598 576 573 543 656 734 766 717 690 625 506 492 496 509 555 583 446 484 602 732 794 794 879 943 984 1010 975 1500 1676 1716 1648 1840 1977 1800 1520 1379 1288 1213 1132 1022 960 960 974 1020 997 891 812 756 699 688 637 573 436 372 345 326 314 304 396 655 755 717 680 444 337 392 571 1176 887 1166 533 592 361 390 696
326 306 329 315 304 298 311 328 386 459 491 434 486 349 401 550 603 603 538 515 497 459 394 347 304 274 267 336 414 501 516 528 589 699 779 856 951 1147 1221 1218 1259 1356 1582 1644 1522 1407 1240 1141 1059 1056 1044 989 960 917 893 846 782 688 629 574 516 424 345 297 220 124 67 304 594 723 756 676 343 335 379 401 416 420 410 335 153 8 211 516 792
220 256 302 313 311 291 312 338 332 331 346 345 363 351 151 163 403 423 353 272 249 236 32 221 262 312 294 252 33 20 201 66 358 511 643 760 756 752 901 1019 1055 1054 985 1149 1234 1174 1100 987 1008 998 987 942 921 844 759 720 686 625 578 450 302 174 175 24 0 0 352 584 637 767 742 452 245 263 264 234 0 0 0 0 0 9 62 178 932
188 226 250 262 241 230 264 242 228 117 28 78 30 108 242 233 244 132 170 158 164 200 244 220 192 192 146 0 136 161 63 157 230 348 496 570 616 610 577 610 686 693 781 890 892 910 837 870 906 899 904 851 752 702 609 531 481 444 342 229 204 25 0 0 0 203 554 495 655 360 269 247 170 114 35 0 0 0 0 0 12 66 189 678 662
0 74 198 200 175 200 192 48 183 102 0 7 17 132 255 362 356 162 42 41 15 1 77 110 1 0 144 167 203 67 0 0 143 278 315 0 97 178 308 484 517 573 624 541 632 767 789 794 779 742 704 622 517 428 394 332 247 180 99 0 0 0 0 0 0 480 377 560 213 66 0 0 0 0 0 0 0 0 0 12 4 5 56 1 0
0 0 0 134 155 136 145 114 130 136 0 1 2 10 20 23 6 5 35 63 44 35 29 30 9 0 0 0 0 9 57 81 92 158 261 300 296 264 180 125 202 298 98 240 348 475 498 488 476 463 424 384 300 255 210 172 115 0 0 90 134 0 0 109 275 427 498 186 87 0 0 0 0 0 0 0 0 0 0 0 0 0 0 0 0
0 0 0 0 0 0 0 0 0 0 35 39 0 0 146 96 0 0 12 3 1 16 222 115 121 20 0 0 0 60 77 130 108 25 0 0 0 0 12 91 146 160 142 100 171 257 364 392 372 330 303 289 254 237 197 136 109 75 40 0 0 0 0 8 210 382 29 0 0 0 0 0 0 0 0 0 0 0 0 0 0 0 0 0 0
0 0 0 0 0 0 0 0 39 103 102 114 135 139 0 0 0 0 0 0 0 0 0 0 0 0 3 4 84 0 0 0 0 0 0 0 0 6 49 88 104 84 92 96 118 140 128 111 104 129 162 148 150 163 159 128 74 70 8 0 0 0 5 172 96 0 0 0 0 0 0 0 0 0 0 0 0 0 0 0 0 0 0 0 0
0 0 0 2 0 0 1 1 0 0 0 0 0 0 0 92 68 0 0 0 0 0 0 2 4 2 102 115 114 86 32 0 0 0 0 0 0 0 0 0 0 0 0 0 67 61 65 80 82 80 62 34 35 35 61 44 10 0 0 0 13 241 114 0 0 0 0 0 0 0 0 0 0 0 0 0 0 0 0 0 0 0 0 0 0
0 0 0 0 0 0 0 0 0 0 0 0 0 0 0 0 0 0 0 0 0 0 0 0 4 4 0 3 82 81 68 0 0 0 0 0 0 0 0 0 0 0 0 0 0 0 0 0 0 0 0 0 0 0 2 16 4 12 0 0 0 0 0 0 0 0 0 0 0 0 0 0 0 0 0 0 0 0 0 0 0 0 0 0 0
0 0 0 0 0 0 0 0 0 0 0 0 0 0 0 0 0 0 0 0 0 0 0 0 0 0 0 0 0 0 0 0 0 0 0 0 0 0 0 0 0 0 0 0 0 0 0 0 0 0 0 0 0 0 0 30 74 117 74 12 0 0 0 0 0 0 0 0 0 0 0 0 0 0 0 0 0 0 0 0 0 0 0 0 0
0 0 0 0 0 0 0 0 0 0 0 0 0 0 0 0 0 0 0 0 0 0 0 0 0 0 0 0 0 0 0 0 0 0 0 0 0 0 0 0 0 0 0 0 0 0 0 0 0 0 0 0 0 0 0 0 0 0 0 0 0 0 0 0 0 0 0 0 0 0 0 0 0 0 0 0 0 0 0 0 0 0 0 0 0
0 0 0 0 0 0 0 0 0 0 0 0 0 0 0 0 0 0 0 0 0 0 0 0 0 0 0 0 0 0 0 0 0 0 0 0 0 0 0 0 0 0 0 0 0 0 0 0 0 0 0 0 0 0 0 0 0 0 0 0 0 0 0 0 0 0 0 0 0 0 0 0 0 0 0 0 0 0 0 0 0 0 0 0 0
0 0 0 0 0 2 1 0 0 0 0 0 0 0 0 0 0 0 0 0 0 0 0 0 0 0 0 0 0 0 0 0 0 0 0 0 0 0 0 0 0 0 0 0 0 0 0 0 0 0 0 0 0 0 0 0 0 0 0 0 0 0 0 0 0 0 0 0 0 0 0 0 0 0 0 0 0 0 0 0 0 0 0 0 0
0 0 0 0 0 0 0 0 0 0 0 0 0 0 0 0 0 0 0 0 0 0 0 0 0 0 0 0 0 0 0 0 0 0 0 0 0 0 0 0 0 0 0 0 0 0 0 0 0 0 0 0 0 0 0 0 0 0 0 0 0 0 0 0 0 0 0 0 0 0 0 0 0 0 0 0 0 0 0 0 0 0 0 0 0
0 0 0 0 0 3 0 0 0 0 0 0 0 0 0 0 0 2 3 0 0 0 0 0 0 0 0 0 0 0 0 0 0 0 0 0 0 0 0 0 0 0 0 0 0 0 0 0 0 0 0 0 0 0 0 0 0 0 0 0 0 0 0 0 0 0 0 0 0 0 0 0 0 0 0 0 0 0 0 0 0 0 0 0 0
0 0 0 0 26 2 0 0 0 0 0 0 0 0 0 0 25 1 0 19 14 0 0 0 0 0 0 0 0 0 0 0 0 0 0 0 0 0 0 0 0 0 0 0 2 3 0 0 0 0 0 0 0 0 0 0 0 0 0 0 0 0 0 0 0 0 0 0 0 0 0 0 0 0 0 0 0 0 0 0 0 0 0 0 0
2 0 0 0 0 0 0 2 0 0 0 0 0 2 14 6 0 1 1 1 1 0 0 0 0 0 0 0 0 0 0 0 0 0 0 0 0 0 0 0 0 0 0 0 0 0 0 0 0 0 0 0 0 0 0 0 0 0 0 0 0 0 0 0 0 0 0 0 0 0 0 0 0 0 0 0 0 0 0 0 0 0 0 0 0
0 0 0 0 0 0 0 27 0 6 0 0 1 8 163 6 0 0 0 0 2 0 0 5 0 0 0 0 0 0 0 0 0 0 0 0 0 0 0 0 0 0 0 0 0 0 0 0 0 0 0 0 0 0 0 0 0 0 0 0 0 0 0 0 0 0 0 0 0 0 0 0 0 0 0 0 0 0 0 0 0 0 0 0 0
0 0 0 0 0 0 0 0 14 11 18 24 17 42 13 0 8 14 0 0 0 0 1 0 0 0 0 0 0 0 0 0 0 0 0 0 0 0 0 0 0 0 0 0 0 0 0 0 0 0 0 0 0 0 0 0 0 0 0 0 0 0 0 0 0 0 0 0 0 0 0 0 0 0 0 0 0 0 0 0 0 0 0 0 0
0 0 0 0 0 0 0 0 0 0 49 10 0 0 0 5 0 0 0 0 0 0 0 0 0 0 0 0 0 0 0 0 0 0 0 0 0 0 0 0 0 0 0 0 0 0 0 0 0 0 0 0 0 0 0 0 0 0 0 0 0 0 0 0 0 0 0 0 0 0 0 0 0 0 0 0 0 0 0 0 0 0 0 0 0
0 0 0 0 0 0 0 0 0 0 0 0 0 0 0 0 0 0 0 0 0 0 0 0 0 0 0 0 0 0 0 0 0 0 0 0 0 0 0 0 0 0 0 0 0 0 0 0 0 0 0 0 0 0 0 0 0 0 0 0 0 0 0 0 1 1 3 4 3 2 0 0 0 0 0 0 0 0 0 0 0 0 0 0 0
8 0 0 0 0 0 0 0 12 0 17 0 0 0 66 0 0 0 0 0 0 0 0 0 0 0 0 0 0 0 0 0 0 0 0 0 0 0 0 0 0 0 0 0 0 0 0 0 0 0 0 0 0 0 0 0 0 0 0 0 0 0 0 0 0 0 1 2 4 4 2 1 0 0 0 0 0 0 0 0 0 0 0 0 0
210 14 0 0 0 1 6 27 155 0 1 0 0 0 0 0 0 0 0 0 0 0 0 0 0 0 0 0 0 0 0 0 0 0 0 0 0 0 0 0 0 0 0 0 0 0 0 0 0 0 0 0 0 0 0 0 0 0 0 0 0 0 0 0 0 0 0 0 0 0 0 0 0 0 0 0 0 0 0 0 0 0 0 0 0
0 2 7 39 32 10 31 0 0 0 0 0 0 0 0 0 0 0 0 0 0 0 0 0 0 0 0 0 0 0 0 0 0 0 0 0 0 0 0 0 0 0 0 0 0 0 0 0 0 0 0 0 0 0 0 0 0 0 0 0 0 0 0 0 0 0 0 0 0 0 0 0 0 0 0 0 0 0 0 0 0 0 0 0 0
2 0 8 7 0 0 2 0 0 0 20 0 0 0 0 0 0 0 0 0 0 0 0 0 0 0 0 0 0 0 0 0 0 0 0 0 0 0 0 0 0 0 0 0 0 0 0 0 0 0 0 0 0 0 0 0 0 0 0 0 0 0 0 0 0 0 0 0 0 0 0 0 0 0 0 0 0 0 0 0 0 0 0 0 0
2 0 0 0 5 0 0 0 30 0 0 0 0 0 0 0 0 0 0 0 0 0 0 0 0 0 0 0 0 0 0 0 0 0 0 0 0 0 0 0 0 0 0 0 0 0 0 0 0 0 0 0 0 0 0 0 0 0 0 0 0 0 0 0 1 1 0 0 0 0 0 0 0 0 0 0 0 0 0 0 0 0 0 0 0
0 0 0 0 2 13 10 15 8 0 0 0 0 0 0 0 0 1 3 0 0 0 0 0 0 0 0 0 0 0 0 0 0 0 0 0 0 0 0 0 0 0 0 0 0 0 0 0 0 0 0 0 0 0 0 0 0 0 0 0 0 1 1 2 1 0 1 0 0 0 0 0 0 0 0 0 0 0 0 0 0 1 2 4 3
7 0 0 6 0 0 0 6 10 3 0 0 0 0 0 0 0 0 0 0 0 0 0 0 0 0 0 0 0 0 0 0 0 0 0 0 0 0 0 0 0 0 0 0 0 0 0 0 0 0 0 0 0 0 0 0 0 0 0 0 2 2 2 1 0 0 0 0 0 0 0 0 0 0 0 0 0 0 0 0 0 2 7 9 10
2 0 2 12 0 1 0 0 1 1 0 0 1 1 0 0 0 0 0 0 0 0 0 0 0 0 0 0 0 0 0 0 0 0 0 0 0 0 0 0 0 0 0 0 0 0 0 0 6 3 2 2 2 1 1 0 0 1 2 1 1 1 1 0 0 0 0 0 0 0 0 0 0 0 0 0 0 0 0 0 0 0 2 7 6
0 0 0 0 0 0 2 3 3 4 6 5 4 2 1 3 0 0 0 0 0 0 0 0 0 0 0 0 0 0 0 0 0 0 0 0 0 0 0 0 0 0 0 0 0 1 0 0 1 2 2 2 2 1 1 1 2 2 2 1 1 1 1 1 1 0 0 0 0 0 0 0 0 0 0 0 0 0 0 0 1 3 4 3 3
0 0 2 0 0 0 0 0 5 7 9 9 4 3 2 2 1 0 0 0 0 0 0 0 0 0 0 0 0 0 0 0 0 0 0 0 0 0 0 0 1 3 2 1 1 1 1 1 1 0 3 5 2 3 3 2 3 3 3 2 3 3 3 1 0 0 0 0 0 0 0 0 0 0 0 0 0 0 1 3 3 2 2 2 2
Wind_Speed
10 9 9 8 8 6 5 5 3 4 4 6 5 6 6 6 5 7 6 6 7 7 5 5 6 7 6 6 7 8 8 8 9 10 9 7 6 7 6 6 5 4 4 2 2 5 6 6 4 5 5 5 4 4 4 5 6 5 4 5 6 8 10 10 9 5 3 6 8 8 6 5 5 7 5 5 4 4 4 7 8 10 9 9 7
11 10 10 8 8 8 6 7 5 5 5 6 6 6 6 7 6 8 8 7 8 7 7 6 7 7 7 8 7 9 9 10 10 10 10 9 8 8 8 6 5 4 4 3 3 4 5 4 3 3 5 5 5 6 6 7 8 8 7 7 5 6 8 10 9 7 5 3 4 5 7 8 7 7 6 6 6 7 6 6 8 8 7 6 5
11 12 11 10 10 9 9 8 8 8 6 8 6 6 5 6 8 10 10 10 8 8 8 8 8 7 6 8 8 10 11 11 11 11 11 11 10 9 9 9 8 6 5 5 4 5 6 7 6 6 5 5 5 6 7 6 6 9 10 10 9 8 9 11 10 8 6 5 5 5 6 6 8 6 4 6 7 8 8 7 7 7 7 6 6
11 11 11 10 10 11 10 11 10 9 8 9 9 8 7 7 9 10 9 10 10 10 10 8 10 9 8 8 11 12 12 11 10 12 13 13 11 10 10 11 11 10 9 8 7 7 7 7 6 6 6 6 6 8 9 9 7 10 9 9 8 8 7 8 9 9 8 6 4 7 5 5 5 5 7 7 7 7 10 10 10 9 9 8 9
11 10 10 10 10 11 11 11 11 10 10 11 9 10 9 11 12 11 11 10 11 12 12 11 12 11 9 11 12 13 13 11 11 10 11 12 12 11 11 13 12 12 10 9 10 10 9 9 9 8 7 6 4 5 7 7 6 6 6 8 10 9 10 12 12 11 10 9 6 6 6 6 7 6 7 9 9 10 11 12 12 11 12 13 13
12 11 10 11 10 11 11 11 11 11 11 11 10 11 10 11 13 13 12 12 13 12 14 12 13 13 12 12 13 14 14 14 13 11 11 12 12 12 12 12 12 11 11 11 11 12 12 12 11 10 9 9 8 7 7 6 8 8 7 8 8 9 9 8 7 7 9 9 11 8 9 9 8 8 8 11 12 11 12 13 14 15 16 16 17
14 13 13 13 12 12 12 11 11 11 10 10 11 11 11 11 13 13 14 13 14 14 14 15 16 16 15 14 14 14 16 16 15 14 12 13 14 13 13 12 12 11 12 12 13 13 13 13 12 12 11 11 9 7 9 10 8 7 8 9 10 11 10 9 11 12 13 12 12 13 12 11 13 11 10 13 13 14 13 14 15 17 18 19 16
19 19 17 17 16 14 16 15 13 14 13 10 10 11 12 13 12 15 15 15 14 16 16 16 17 17 16 15 15 16 16 16 17 16 15 14 15 16 15 15 14 15 14 14 13 13 14 15 14 14 14 15 13 9 11 15 13 11 12 13 13 14 13 12 12 11 12 13 14 12 14 14 12 14 14 14 13 13 13 14 11 12 15 19 20
23 22 22 23 22 18 17 18 18 18 18 18 17 13 14 16 16 15 16 16 18 18 17 18 18 16 18 17 18 18 18 17 18 18 17 17 17 16 16 17 17 18 16 16 15 15 15 14 14 15 18 16 13 12 12 14 18 15 12 14 15 15 15 15 14 13 14 14 12 14 15 13 12 13 12 13 14 14 14 13 12 11 12 15 18
28 27 30 27 21 17 17 20 21 20 20 19 18 19 17 19 21 19 16 16 17 19 21 25 26 27 27 26 24 16 15 18 18 17 19 19 18 17 18 21 20 21 20 19 17 17 16 15 15 15 12 14 20 15 10 13 16 16 15 17 17 17 16 15 14 14 15 14 14 15 14 13 14 14 14 15 16 15 12 12 11 11 11 13 20
33 33 32 23 16 15 21 24 23 22 23 21 21 21 20 20 23 22 23 24 23 24 24 24 24 25 25 25 21 18 19 19 23 27 25 16 17 19 19 23 23 24 22 21 19 18 18 17 16 16 15 14 17 14 12 14 13 12 16 19 21 19 17 15 14 15 15 15 16 16 16 16 15 15 14 14 15 14 14 13 13 13 13 12 12
34 34 28 21 15 15 23 23 20 21 23 23 23 24 23 23 25 25 25 25 22 22 25 25 24 24 25 25 23 21 20 24 25 25 24 23 18 18 22 22 23 23 23 22 21 20 18 18 19 18 24 25 25 25 23 17 15 15 18 20 20 18 18 19 17 16 17 16 16 16 17 16 16 16 14 14 13 13 14 14 15 14 13 14 14
30 30 26 15 13 16 20 19 17 17 18 20 21 23 24 25 26 26 28 26 26 26 25 28 28 26 26 26 25 26 26 28 27 25 26 26 22 21 22 24 23 23 24 23 22 21 21 22 24 27 28 31 28 25 25 24 21 22 23 22 21 19 17 16 17 17 19 19 19 17 17 18 17 17 17 15 15 13 14 14 16 16 17 16 16
29 28 25 19 13 17 17 17 17 17 18 19 20 21 23 25 26 26 27 27 27 28 31 32 29 27 26 25 25 27 27 29 28 27 28 29 27 26 25 26 27 27 27 27 30 30 28 29 31 30 29 30 29 27 26 26 24 23 22 21 20 19 20 19 17 15 17 19 21 20 19 21 18 19 17 18 15 12 13 13 17 18 18 18 18
30 30 28 24 19 17 19 20 20 20 21 21 22 23 26 27 25 24 25 26 28 30 31 32 31 29 28 29 30 30 29 30 28 27 27 28 27 28 30 33 35 38 37 33 32 33 32 31 32 32 31 31 30 28 28 26 25 24 24 22 21 20 22 22 21 20 21 22 22 21 20 20 20 20 20 18 15 14 15 15 16 17 18 19 20
32 32 31 29 27 22 21 24 27 28 25 23 23 25 28 22 22 23 23 25 27 29 30 30 29 28 28 27 30 32 31 34 32 30 29 29 27 29 33 35 37 41 39 36 35 35 35 36 35 33 33 32 31 32 31 28 29 27 26 25 24 23 23 21 19 19 26 26 25 24 23 22 20 19 18 17 16 16 18 18 18 19 19 20 21
28 29 28 28 27 26 24 24 27 24 25 26 26 27 28 24 21 22 25 25 27 27 26 27 27 27 29 28 32 31 32 34 34 32 32 31 30 33 35 38 40 41 40 37 36 35 36 38 38 37 36 34 32 34 33 34 32 31 28 27 25 25 24 26 31 32 29 26 23 21 19 17 15 15 13 12 nan 20 22 20 17 19 20 20 21
27 27 26 24 27 26 27 29 26 23 26 26 25 26 25 23 23 23 25 26 28 27 24 24 28 30 31 33 32 31 30 32 34 34 33 31 29 31 33 36 37 38 38 37 37 36 38 44 42 41 40 37 35 35 35 34 34 33 31 29 28 26 27 28 27 26 26 25 24 22 20 17 16 16 15 13 13 28 25 22 20 21 19 20 21
28 29 28 27 28 30 31 32 29 28 29 29 28 28 26 25 24 25 26 27 28 29 29 28 31 33 34 32 34 34 32 32 35 36 36 33 29 28 31 36 37 36 38 38 38 39 39 42 45 43 42 41 40 39 38 36 35 33 33 31 30 28 30 28 28 27 27 27 26 25 24 22 23 24 22 18 20 29 28 25 22 22 22 23 22
35 35 35 35 35 36 35 36 35 34 33 33 32 30 29 30 28 26 27 28 30 32 31 30 32 33 35 34 33 34 35 34 35 38 40 39 35 33 35 37 38 37 37 37 39 39 40 40 41 42 43 42 42 42 40 38 36 33 33 32 31 30 32 29 28 27 27 27 26 26 24 24 25 28 29 30 33 33 31 28 26 26 26 24 24
40 41 41 41 41 40 39 40 41 38 36 34 34 34 33 32 31 31 31 32 35 36 37 38 39 36 35 35 34 34 35 34 35 37 40 40 39 37 36 36 34 33 34 34 36 36 36 37 37 39 42 44 43 43 42 38 36 34 33 32 31 33 31 31 28 28 nan 27 28 27 26 28 31 33 34 33 33 32 31 29 29 nan 28 26 25
43 44 44 43 42 42 41 42 41 42 39 38 36 35 34 33 35 37 35 35 36 38 nan 39 40 39 36 36 nan nan 35 nan 33 36 38 36 35 36 33 32 29 25 27 28 27 27 27 29 32 38 41 42 42 41 40 39 36 36 32 28 30 36 32 nan nan nan 29 29 29 29 31 34 35 36 36 35 nan nan nan nan nan nan nan 27 27
43 44 44 44 43 42 42 42 42 42 nan nan nan 41 39 37 36 37 37 37 38 38 38 38 39 39 38 nan 37 36 nan 33 34 32 34 33 32 33 33 30 28 27 25 25 24 23 22 24 29 34 33 34 36 38 36 35 35 35 31 30 33 nan nan nan nan 32 31 30 30 33 36 38 37 36 nan nan nan nan nan nan nan nan 29 29 30
nan nan 43 43 43 44 43 nan 42 43 nan nan nan 39 39 36 36 37 nan nan nan nan nan 37 nan nan 39 37 37 nan nan nan 36 35 33 nan nan 33 33 32 29 25 24 25 23 23 22 21 21 21 25 26 28 31 33 33 34 32 nan nan nan nan nan nan nan 35 34 33 35 nan nan nan nan nan nan nan nan nan nan nan nan nan nan nan nan
nan nan nan 47 45 43 44 44 43 43 nan nan nan nan nan nan nan nan nan nan nan nan nan nan nan nan nan nan nan nan nan nan nan 34 32 30 31 32 31 32 28 26 nan 25 26 25 22 17 14 14 17 19 20 24 29 31 28 nan nan nan 34 nan nan 34 34 34 35 38 nan nan nan nan nan nan nan nan nan nan nan nan nan nan nan nan nan
nan nan nan nan nan nan nan nan nan nan nan nan nan nan 43 nan nan nan nan nan nan nan 35 35 34 nan nan nan nan nan nan 38 39 nan nan nan nan nan nan nan 34 32 33 31 29 26 23 17 14 12 14 16 19 21 24 27 28 nan nan nan nan nan nan nan 26 30 nan nan nan nan nan nan nan nan nan nan nan nan nan nan nan nan nan nan nan
nan nan nan nan nan nan nan nan nan 49 47 46 44 42 nan nan nan nan nan nan nan nan nan nan nan nan nan nan nan nan nan nan nan nan nan nan nan nan nan nan 39 nan nan nan 31 28 23 21 20 16 14 10 9 10 12 13 nan nan nan nan nan nan nan 24 nan nan nan nan nan nan nan nan nan nan nan nan nan nan nan nan nan nan nan nan nan
nan nan nan nan nan nan nan nan nan nan nan nan nan nan nan nan nan nan nan nan nan nan nan nan nan nan 41 39 38 nan nan nan nan nan nan nan nan nan nan nan nan nan nan nan nan nan nan nan nan nan nan nan nan nan nan nan nan nan nan nan nan 25 32 nan nan nan nan nan nan nan nan nan nan nan nan nan nan nan nan nan nan nan nan nan nan
nan nan nan nan nan nan nan nan nan nan nan nan nan nan nan nan nan nan nan nan nan nan nan nan nan nan nan nan nan nan nan nan nan nan nan nan nan nan nan nan nan nan nan nan nan nan nan nan nan nan nan nan nan nan nan nan nan nan nan nan nan nan nan nan nan nan nan nan nan nan nan nan nan nan nan nan nan nan nan nan nan nan nan nan nan
nan nan nan nan nan nan nan nan nan nan nan nan nan nan nan nan nan nan nan nan nan nan nan nan nan nan nan nan nan nan nan nan nan nan nan nan nan nan nan nan nan nan nan nan nan nan nan nan nan nan nan nan nan nan nan nan nan 32 nan nan nan nan nan nan nan nan nan nan nan nan nan nan nan nan nan nan nan nan nan nan nan nan nan nan nan
nan nan nan nan nan nan nan nan nan nan nan nan nan nan nan nan nan nan nan nan nan nan nan nan nan nan nan nan nan nan nan nan nan nan nan nan nan nan nan nan nan nan nan nan nan nan nan nan nan nan nan nan nan nan nan nan nan nan nan nan nan nan nan nan nan nan nan nan nan nan nan nan nan nan nan nan nan nan nan nan nan nan nan nan nan
nan nan nan nan nan nan nan nan nan nan nan nan nan nan nan nan nan nan nan nan nan nan nan nan nan nan nan nan nan nan nan nan nan nan nan nan nan nan nan nan nan nan nan nan nan nan nan nan nan nan nan nan nan nan nan nan nan nan nan nan nan nan nan nan nan nan nan nan nan nan nan nan nan nan nan nan nan nan nan nan nan nan nan nan nan
nan nan nan nan nan nan nan nan nan nan nan nan nan nan nan nan nan nan nan nan nan nan nan nan nan nan nan nan nan nan nan nan nan nan nan nan nan nan nan nan nan nan nan nan nan nan nan nan nan nan nan nan nan nan nan nan nan nan nan nan nan nan nan nan nan nan nan nan nan nan nan nan nan nan nan nan nan nan nan nan nan nan nan nan nan
nan nan nan nan nan nan nan nan nan nan nan nan nan nan nan nan nan nan nan nan nan nan nan nan nan nan nan nan nan nan nan nan nan nan nan nan nan nan nan nan nan nan nan nan nan nan nan nan nan nan nan nan nan nan nan nan nan nan nan nan nan nan nan nan nan nan nan nan nan nan nan nan nan nan nan nan nan nan nan nan nan nan nan nan nan
nan nan nan nan nan nan nan nan nan nan nan nan nan nan nan nan nan nan nan nan nan nan nan nan nan nan nan nan nan nan nan nan nan nan nan nan nan nan nan nan nan nan nan nan nan nan nan nan nan nan nan nan nan nan nan nan nan nan nan nan nan nan nan nan nan nan nan nan nan nan nan nan nan nan nan nan nan nan nan nan nan nan nan nan nan
nan nan nan nan nan nan nan nan nan nan nan nan nan nan nan nan nan nan nan nan nan nan nan nan nan nan nan nan nan nan nan nan nan nan nan nan nan nan nan nan nan nan nan nan nan nan nan nan nan nan nan nan nan nan nan nan nan nan nan nan nan nan nan nan nan nan nan nan nan nan nan nan nan nan nan nan nan nan nan nan nan nan nan nan nan
nan nan nan nan nan nan nan nan nan nan nan nan nan nan nan nan nan nan nan nan nan nan nan nan nan nan nan nan nan nan nan nan nan nan nan nan nan nan nan nan nan nan nan nan nan nan nan nan nan nan nan nan nan nan nan nan nan nan nan nan nan nan nan nan nan nan nan nan nan nan nan nan nan nan nan nan nan nan nan nan nan nan nan nan nan
nan nan nan nan nan nan nan nan nan nan nan nan nan nan 45 nan nan nan nan nan nan nan nan nan nan nan nan nan nan nan nan nan nan nan nan nan nan nan nan nan nan nan nan nan nan nan nan nan nan nan nan nan nan nan nan nan nan nan nan nan nan nan nan nan nan nan nan nan nan nan nan nan nan nan nan nan nan nan nan nan nan nan nan nan nan
nan nan nan nan nan nan nan nan nan nan nan nan nan nan nan nan nan nan nan nan nan nan nan nan nan nan nan nan nan nan nan nan nan nan nan nan nan nan nan nan nan nan nan nan nan nan nan nan nan nan nan nan nan nan nan nan nan nan nan nan nan nan nan nan nan nan nan nan nan nan nan nan nan nan nan nan nan nan nan nan nan nan nan nan nan
nan nan nan nan nan nan nan nan nan nan nan nan nan nan nan nan nan nan nan nan nan nan nan nan nan nan nan nan nan nan nan nan nan nan nan nan nan nan nan nan nan nan nan nan nan nan nan nan nan nan nan nan nan nan nan nan nan nan nan nan nan nan nan nan nan nan nan nan nan nan nan nan nan nan nan nan nan nan nan nan nan nan nan nan nan
nan nan nan nan nan nan nan nan nan nan nan nan nan nan nan nan nan nan nan nan nan nan nan nan nan nan nan nan nan nan nan nan nan nan nan nan nan nan nan nan nan nan nan nan nan nan nan nan nan nan nan nan nan nan nan nan nan nan nan nan nan nan nan nan nan nan nan nan nan nan nan nan nan nan nan nan nan nan nan nan nan nan nan nan nan
nan nan nan nan nan nan nan nan nan nan nan nan nan nan nan nan nan nan nan nan nan nan nan nan nan nan nan nan nan nan nan nan nan nan nan nan nan nan nan nan nan nan nan nan nan nan nan nan nan nan nan nan nan nan nan nan nan nan nan nan nan nan nan nan nan nan nan nan nan nan nan nan nan nan nan nan nan nan nan nan nan nan nan nan nan
41 nan nan nan nan nan nan nan 54 nan nan nan nan nan nan nan nan nan nan nan nan nan nan nan nan nan nan nan nan nan nan nan nan nan nan nan nan nan nan nan nan nan nan nan nan nan nan nan nan nan nan nan nan nan nan nan nan nan nan nan nan nan nan nan nan nan nan nan nan nan nan nan nan nan nan nan nan nan nan nan nan nan nan nan nan
nan nan nan nan nan nan nan nan nan nan nan nan nan nan nan nan nan nan nan nan nan nan nan nan nan nan nan nan nan nan nan nan nan nan nan nan nan nan nan nan nan nan nan nan nan nan nan nan nan nan nan nan nan nan nan nan nan nan nan nan nan nan nan nan nan nan nan nan nan nan nan nan nan nan nan nan nan nan nan nan nan nan nan nan nan
nan nan nan nan nan nan nan nan nan nan nan nan nan nan nan nan nan nan nan nan nan nan nan nan nan nan nan nan nan nan nan nan nan nan nan nan nan nan nan nan nan nan nan nan nan nan nan nan nan nan nan nan nan nan nan nan nan nan nan nan nan nan nan nan nan nan nan nan nan nan nan nan nan nan nan nan nan nan nan nan nan nan nan nan nan
nan nan nan nan nan nan nan nan nan nan nan nan nan nan nan nan nan nan nan nan nan nan nan nan nan nan nan nan nan nan nan nan nan nan nan nan nan nan nan nan nan nan nan nan nan nan nan nan nan nan nan nan nan nan nan nan nan nan nan nan nan nan nan nan nan nan nan nan nan nan nan nan nan nan nan nan nan nan nan nan nan nan nan nan nan
nan nan nan nan nan nan nan nan nan nan nan nan nan nan nan nan nan nan nan nan nan nan nan nan nan nan nan nan nan nan nan nan nan nan nan nan nan nan nan nan nan nan nan nan nan nan nan nan nan nan nan nan nan nan nan nan nan nan nan nan nan nan nan nan nan nan nan nan nan nan nan nan nan nan nan nan nan nan nan nan nan nan nan nan nan
nan nan nan nan nan nan nan nan nan nan nan nan nan nan nan nan nan nan nan nan nan nan nan nan nan nan nan nan nan nan nan nan nan nan nan nan nan nan nan nan nan nan nan nan nan nan nan nan nan nan nan nan nan nan nan nan nan nan nan nan nan nan nan nan nan nan nan nan nan nan nan nan nan nan nan nan nan nan nan nan nan nan nan nan nan
nan nan nan nan nan nan nan nan nan nan nan nan nan nan nan nan nan nan nan nan nan nan nan nan nan nan nan nan nan nan nan nan nan nan nan nan nan nan nan nan nan nan nan nan nan nan nan nan nan nan nan nan nan nan nan nan nan nan nan nan nan nan nan nan nan nan nan nan nan nan nan nan nan nan nan nan nan nan nan nan nan nan nan nan nan
nan nan nan nan nan nan nan nan nan nan nan nan nan nan nan nan nan nan nan nan nan nan nan nan nan nan nan nan nan nan nan nan nan nan nan nan nan nan nan nan nan nan nan nan nan nan nan nan nan nan nan nan nan nan nan nan nan nan nan nan nan nan nan nan nan nan nan nan nan nan nan nan nan nan nan nan nan nan nan nan nan nan nan nan nan
nan nan nan nan nan nan nan nan nan nan nan nan nan nan nan nan nan nan nan nan nan nan nan nan nan nan nan nan nan nan nan nan nan nan nan nan nan nan nan nan nan nan nan nan nan nan nan nan nan nan nan nan nan nan nan nan nan nan nan nan nan nan nan nan nan nan nan nan nan nan nan nan nan nan nan nan nan nan nan nan nan nan nan nan nan
Wind_Direction
269 258 259 252 252 260 242 235 234 233 234 263 276 255 260 264 267 275 271 264 271 269 272 266 281 297 301 291 299 305 303 301 307 303 306 311 301 308 305 316 321 333 342 10 342 329 330 339 355 3 334 325 340 318 311 307 295 311 325 320 338 340 335 345 355 9 335 345 348 344 354 347 354 341 332 332 321 315 321 329 332 335 340 341 337
264 264 258 254 256 270 266 250 251 238 232 253 252 248 240 245 268 266 279 269 271 272 272 269 265 288 296 305 301 311 308 304 308 302 304 303 298 303 299 302 307 321 329 337 346 343 328 335 350 360 343 346 350 335 333 318 325 321 326 325 335 337 331 327 346 326 13 348 338 355 360 355 3 4 353 352 355 342 345 344 340 334 334 331 322
262 263 257 260 250 266 263 257 258 251 248 244 269 262 253 244 261 266 270 267 271 276 275 274 274 279 281 280 299 298 307 310 304 304 306 304 304 304 307 308 307 311 322 337 338 324 318 324 342 340 340 355 8 348 339 318 327 339 335 328 339 341 328 330 316 336 5 14 348 342 344 337 345 9 3 349 348 347 340 334 324 317 313 306 296
269 271 260 264 255 259 259 256 268 260 257 248 254 263 266 263 265 269 272 264 277 279 284 276 270 281 286 276 279 282 291 296 299 297 307 304 303 309 302 308 311 315 322 323 326 322 323 318 333 334 339 344 353 359 339 335 360 350 346 334 332 332 324 313 330 336 338 338 329 337 327 320 332 340 335 328 325 323 315 315 310 306 301 297 297
276 280 271 273 260 258 262 257 267 264 259 257 251 257 256 261 266 273 270 269 273 268 271 271 264 272 280 274 276 280 284 284 286 283 289 299 301 302 296 298 305 313 315 314 310 316 317 312 319 323 324 333 345 341 341 347 350 340 335 326 330 336 322 332 344 347 336 340 336 328 327 322 326 337 323 306 303 302 300 300 306 305 302 303 298
268 274 265 268 262 256 260 254 260 268 268 264 267 265 265 257 266 273 274 270 272 273 269 271 268 269 271 270 273 278 279 280 281 279 278 285 293 293 293 297 304 306 306 309 313 311 308 307 309 311 310 315 319 323 324 335 328 330 331 334 331 324 328 334 327 320 313 329 330 324 311 324 307 314 306 298 296 300 299 303 300 298 293 287 290
256 264 253 252 257 253 255 261 257 262 274 268 269 269 272 267 265 271 271 267 267 272 274 272 270 273 269 263 267 271 275 278 281 283 280 275 282 289 289 293 299 301 303 309 311 309 310 312 308 310 315 308 298 309 320 316 313 308 315 312 302 300 298 305 308 311 313 310 309 316 316 316 315 309 309 301 299 303 300 292 295 302 298 293 288
244 247 249 243 248 253 243 241 242 239 236 244 255 260 257 265 262 266 275 271 268 268 278 276 270 273 274 273 269 270 276 278 280 281 282 283 280 281 287 286 287 287 286 289 290 293 299 303 304 306 313 313 330 336 311 306 300 296 298 297 294 291 294 299 298 299 296 297 305 305 304 306 297 306 303 294 287 290 294 298 294 292 294 299 303
234 240 244 240 237 243 247 245 244 239 237 233 230 235 252 247 246 257 268 263 256 253 260 268 268 268 267 273 277 275 280 285 285 284 286 286 287 283 286 284 279 281 280 280 281 282 284 289 297 301 295 303 298 297 334 315 297 302 297 290 290 290 291 291 294 292 291 293 293 293 294 292 300 299 293 298 304 311 312 301 306 308 305 299 303
231 231 234 235 232 232 242 245 241 244 245 241 239 236 241 252 250 242 246 255 257 251 243 245 248 250 244 234 226 237 264 275 276 300 297 288 283 280 278 285 289 280 280 279 278 279 281 285 288 288 285 304 323 338 336 316 319 311 304 295 290 288 291 292 289 293 295 296 298 296 292 296 299 298 303 309 310 308 302 305 305 307 303 303 309
214 227 234 228 221 229 237 238 241 244 244 244 245 243 242 247 255 254 251 252 256 260 262 254 250 249 253 256 256 247 240 235 233 247 252 260 279 281 280 279 276 278 278 278 277 279 279 280 282 291 301 288 279 290 312 311 307 305 297 297 295 293 291 290 290 291 291 294 293 292 295 296 297 299 304 308 306 308 313 310 310 301 297 285 284
215 225 226 220 204 217 236 240 240 242 240 240 244 245 245 250 255 259 259 258 260 265 272 271 262 256 250 247 245 253 261 247 235 242 249 254 254 272 283 278 277 278 281 282 282 278 281 282 280 281 278 278 275 271 272 283 295 295 289 284 288 290 290 290 289 284 285 284 282 286 289 294 295 295 298 295 299 301 305 303 302 300 298 298 301
229 227 241 227 193 201 230 243 246 247 248 249 252 252 251 253 255 258 261 262 264 261 261 263 263 259 256 256 255 254 255 246 239 242 249 249 258 263 263 274 277 280 281 281 280 276 270 271 267 262 263 256 262 264 266 267 276 289 287 288 290 292 292 292 292 289 282 282 284 283 289 288 288 291 294 294 293 293 295 298 301 303 305 305 308
227 241 237 238 200 180 204 236 254 257 255 254 253 255 255 256 260 260 260 260 261 260 258 258 256 256 258 260 257 255 257 247 243 245 248 251 255 265 267 261 268 274 275 271 270 270 270 271 272 270 265 263 262 261 262 265 265 275 278 279 279 282 291 291 289 292 289 284 283 286 285 286 287 286 287 286 282 291 296 301 300 302 305 309 310
221 232 242 241 236 203 206 224 239 245 249 252 253 251 250 249 256 261 263 262 259 255 255 257 256 254 253 259 263 258 255 242 243 245 251 252 250 262 268 266 266 267 269 270 269 269 268 269 270 270 269 266 265 263 265 264 263 263 269 272 276 275 275 278 281 283 283 284 287 289 286 284 285 284 283 283 291 301 297 293 295 301 307 306 306
226 229 237 244 243 237 230 234 236 233 235 246 250 253 255 242 249 257 263 265 261 258 257 258 259 258 256 256 262 260 255 244 243 248 251 253 252 262 266 269 269 272 271 270 269 269 269 271 271 270 268 267 259 256 259 265 262 260 260 260 260 265 269 276 274 266 265 272 275 275 276 276 276 280 280 282 284 285 279 283 286 293 295 297 301
238 236 239 241 247 257 257 249 249 253 249 246 248 250 260 268 257 257 260 259 261 264 267 265 261 260 258 254 258 255 251 243 242 247 251 250 259 263 266 271 274 275 275 273 272 271 270 270 270 270 268 265 259 256 253 261 264 262 260 258 257 258 257 257 260 264 262 263 262 266 268 270 269 269 273 286 nan 284 282 276 283 287 287 289 293
242 242 246 247 251 260 267 267 267 264 258 258 256 253 253 257 257 257 259 261 264 265 269 267 265 258 255 256 261 261 259 252 248 248 248 250 257 262 264 270 273 274 276 275 274 272 273 274 269 266 266 263 258 256 252 259 264 262 262 259 259 257 258 254 256 257 255 259 260 262 265 266 268 268 273 277 280 289 290 291 284 280 282 284 283
254 260 267 265 262 265 267 269 272 271 267 263 263 261 257 258 259 259 260 263 267 267 266 263 264 266 269 268 267 266 262 257 253 253 252 249 256 262 262 265 270 274 278 278 276 272 268 269 269 266 264 262 259 257 253 255 260 259 259 260 260 260 261 254 254 252 254 256 259 261 265 265 271 273 270 259 251 279 289 286 281 279 280 279 278
264 266 268 267 263 265 267 269 271 269 267 269 270 269 268 264 259 257 258 261 265 269 269 266 265 265 264 263 261 259 257 253 250 248 252 251 250 261 264 268 269 271 275 279 278 274 273 270 267 268 268 264 259 255 256 254 256 255 256 257 257 259 256 254 256 256 259 262 265 267 270 272 272 272 272 270 270 273 280 281 280 280 277 275 278
264 264 263 263 261 262 264 267 269 268 267 266 265 266 267 265 263 259 256 255 257 258 262 265 265 262 259 258 258 257 258 257 252 248 251 254 255 259 263 263 262 267 269 269 275 276 275 273 271 272 270 264 257 253 252 251 254 257 257 258 258 256 255 259 258 253 nan 262 264 266 269 270 270 269 269 268 268 267 268 269 271 nan 274 276 278
261 261 262 263 262 261 261 265 270 270 265 262 262 261 261 262 264 261 258 256 255 254 nan 258 260 259 256 255 nan nan 254 nan 254 249 249 252 254 256 261 261 257 260 266 272 274 278 280 281 274 270 267 264 259 255 252 252 254 259 260 261 252 250 258 nan nan nan 263 263 264 265 264 264 264 265 266 265 nan nan nan nan nan nan nan 282 285
256 259 261 261 261 261 260 259 261 266 nan nan nan 260 259 258 260 261 261 258 256 256 256 257 260 260 258 nan 256 254 nan 254 254 253 250 251 252 254 251 251 242 252 258 266 267 274 282 284 277 269 261 257 257 257 255 254 254 260 260 255 256 nan nan nan nan 265 265 267 268 268 265 263 263 264 nan nan nan nan nan nan nan nan 279 280 279
nan nan 260 261 261 262 261 nan 259 260 nan nan nan 264 265 262 259 259 nan nan nan nan nan 258 nan nan 259 258 256 nan nan nan 254 252 252 nan nan 249 248 247 250 252 254 262 271 278 286 291 285 267 257 252 250 255 257 258 258 253 nan nan nan nan nan nan nan 269 270 271 271 nan nan nan nan nan nan nan nan nan nan nan nan nan nan nan nan
nan nan nan 258 257 261 263 262 261 259 nan nan nan nan nan nan nan nan nan nan nan nan nan nan nan nan nan nan nan nan nan nan nan 250 245 245 241 240 244 250 251 259 nan 259 266 274 280 285 284 271 258 250 251 257 261 262 265 nan nan nan 264 nan nan 275 273 271 271 271 nan nan nan nan nan nan nan nan nan nan nan nan nan nan nan nan nan
nan nan nan nan nan nan nan nan nan nan nan nan nan nan 254 nan nan nan nan nan nan nan 259 261 261 nan nan nan nan nan nan 252 249 nan nan nan nan nan nan nan 250 252 256 260 257 260 259 266 277 279 271 267 261 265 268 268 265 nan nan nan nan nan nan nan 278 273 nan nan nan nan nan nan nan nan nan nan nan nan nan nan nan nan nan nan nan
nan nan nan nan nan nan nan nan nan 257 254 253 251 252 nan nan nan nan nan nan nan nan nan nan nan nan nan nan nan nan nan nan nan nan nan nan nan nan nan nan 251 nan nan nan 256 260 260 266 273 276 278 259 253 262 260 249 nan nan nan nan nan nan nan 273 nan nan nan nan nan nan nan nan nan nan nan nan nan nan nan nan nan nan nan nan nan
nan nan nan nan nan nan nan nan nan nan nan nan nan nan nan nan nan nan nan nan nan nan nan nan nan nan 247 248 249 nan nan nan nan nan nan nan nan nan nan nan nan nan nan nan nan nan nan nan nan nan nan nan nan nan nan nan nan nan nan nan nan 264 268 nan nan nan nan nan nan nan nan nan nan nan nan nan nan nan nan nan nan nan nan nan nan
nan nan nan nan nan nan nan nan nan nan nan nan nan nan nan nan nan nan nan nan nan nan nan nan nan nan nan nan nan nan nan nan nan nan nan nan nan nan nan nan nan nan nan nan nan nan nan nan nan nan nan nan nan nan nan nan nan nan nan nan nan nan nan nan nan nan nan nan nan nan nan nan nan nan nan nan nan nan nan nan nan nan nan nan nan
nan nan nan nan nan nan nan nan nan nan nan nan nan nan nan nan nan nan nan nan nan nan nan nan nan nan nan nan nan nan nan nan nan nan nan nan nan nan nan nan nan nan nan nan nan nan nan nan nan nan nan nan nan nan nan nan nan 270 nan nan nan nan nan nan nan nan nan nan nan nan nan nan nan nan nan nan nan nan nan nan nan nan nan nan nan
nan nan nan nan nan nan nan nan nan nan nan nan nan nan nan nan nan nan nan nan nan nan nan nan nan nan nan nan nan nan nan nan nan nan nan nan nan nan nan nan nan nan nan nan nan nan nan nan nan nan nan nan nan nan nan nan nan nan nan nan nan nan nan nan nan nan nan nan nan nan nan nan nan nan nan nan nan nan nan nan nan nan nan nan nan
nan nan nan nan nan nan nan nan nan nan nan nan nan nan nan nan nan nan nan nan nan nan nan nan nan nan nan nan nan nan nan nan nan nan nan nan nan nan nan nan nan nan nan nan nan nan nan nan nan nan nan nan nan nan nan nan nan nan nan nan nan nan nan nan nan nan nan nan nan nan nan nan nan nan nan nan nan nan nan nan nan nan nan nan nan
nan nan nan nan nan nan nan nan nan nan nan nan nan nan nan nan nan nan nan nan nan nan nan nan nan nan nan nan nan nan nan nan nan nan nan nan nan nan nan nan nan nan nan nan nan nan nan nan nan nan nan nan nan nan nan nan nan nan nan nan nan nan nan nan nan nan nan nan nan nan nan nan nan nan nan nan nan nan nan nan nan nan nan nan nan
nan nan nan nan nan nan nan nan nan nan nan nan nan nan nan nan nan nan nan nan nan nan nan nan nan nan nan nan nan nan nan nan nan nan nan nan nan nan nan nan nan nan nan nan nan nan nan nan nan nan nan nan nan nan nan nan nan nan nan nan nan nan nan nan nan nan nan nan nan nan nan nan nan nan nan nan nan nan nan nan nan nan nan nan nan
nan nan nan nan nan nan nan nan nan nan nan nan nan nan nan nan nan nan nan nan nan nan nan nan nan nan nan nan nan nan nan nan nan nan nan nan nan nan nan nan nan nan nan nan nan nan nan nan nan nan nan nan nan nan nan nan nan nan nan nan nan nan nan nan nan nan nan nan nan nan nan nan nan nan nan nan nan nan nan nan nan nan nan nan nan
nan nan nan nan nan nan nan nan nan nan nan nan nan nan nan nan nan nan nan nan nan nan nan nan nan nan nan nan nan nan nan nan nan nan nan nan nan nan nan nan nan nan nan nan nan nan nan nan nan nan nan nan nan nan nan nan nan nan nan nan nan nan nan nan nan nan nan nan nan nan nan nan nan nan nan nan nan nan nan nan nan nan nan nan nan
nan nan nan nan nan nan nan nan nan nan nan nan nan nan nan nan nan nan nan nan nan nan nan nan nan nan nan nan nan nan nan nan nan nan nan nan nan nan nan nan nan nan nan nan nan nan nan nan nan nan nan nan nan nan nan nan nan nan nan nan nan nan nan nan nan nan nan nan nan nan nan nan nan nan nan nan nan nan nan nan nan nan nan nan nan
nan nan nan nan nan nan nan nan nan nan nan nan nan nan 256 nan nan nan nan nan nan nan nan nan nan nan nan nan nan nan nan nan nan nan nan nan nan nan nan nan nan nan nan nan nan nan nan nan nan nan nan nan nan nan nan nan nan nan nan nan nan nan nan nan nan nan nan nan nan nan nan nan nan nan nan nan nan nan nan nan nan nan nan nan nan
nan nan nan nan nan nan nan nan nan nan nan nan nan nan nan nan nan nan nan nan nan nan nan nan nan nan nan nan nan nan nan nan nan nan nan nan nan nan nan nan nan nan nan nan nan nan nan nan nan nan nan nan nan nan nan nan nan nan nan nan nan nan nan nan nan nan nan nan nan nan nan nan nan nan nan nan nan nan nan nan nan nan nan nan nan
nan nan nan nan nan nan nan nan nan nan nan nan nan nan nan nan nan nan nan nan nan nan nan nan nan nan nan nan nan nan nan nan nan nan nan nan nan nan nan nan nan nan nan nan nan nan nan nan nan nan nan nan nan nan nan nan nan nan nan nan nan nan nan nan nan nan nan nan nan nan nan nan nan nan nan nan nan nan nan nan nan nan nan nan nan
nan nan nan nan nan nan nan nan nan nan nan nan nan nan nan nan nan nan nan nan nan nan nan nan nan nan nan nan nan nan nan nan nan nan nan nan nan nan nan nan nan nan nan nan nan nan nan nan nan nan nan nan nan nan nan nan nan nan nan nan nan nan nan nan nan nan nan nan nan nan nan nan nan nan nan nan nan nan nan nan nan nan nan nan nan
nan nan nan nan nan nan nan nan nan nan nan nan nan nan nan nan nan nan nan nan nan nan nan nan nan nan nan nan nan nan nan nan nan nan nan nan nan nan nan nan nan nan nan nan nan nan nan nan nan nan nan nan nan nan nan nan nan nan nan nan nan nan nan nan nan nan nan nan nan nan nan nan nan nan nan nan nan nan nan nan nan nan nan nan nan
269 nan nan nan nan nan nan nan 266 nan nan nan nan nan nan nan nan nan nan nan nan nan nan nan nan nan nan nan nan nan nan nan nan nan nan nan nan nan nan nan nan nan nan nan nan nan nan nan nan nan nan nan nan nan nan nan nan nan nan nan nan nan nan nan nan nan nan nan nan nan nan nan nan nan nan nan nan nan nan nan nan nan nan nan nan
nan nan nan nan nan nan nan nan nan nan nan nan nan nan nan nan nan nan nan nan nan nan nan nan nan nan nan nan nan nan nan nan nan nan nan nan nan nan nan nan nan nan nan nan nan nan nan nan nan nan nan nan nan nan nan nan nan nan nan nan nan nan nan nan nan nan nan nan nan nan nan nan nan nan nan nan nan nan nan nan nan nan nan nan nan
nan nan nan nan nan nan nan nan nan nan nan nan nan nan nan nan nan nan nan nan nan nan nan nan nan nan nan nan nan nan nan nan nan nan nan nan nan nan nan nan nan nan nan nan nan nan nan nan nan nan nan nan nan nan nan nan nan nan nan nan nan nan nan nan nan nan nan nan nan nan nan nan nan nan nan nan nan nan nan nan nan nan nan nan nan
nan nan nan nan nan nan nan nan nan nan nan nan nan nan nan nan nan nan nan nan nan nan nan nan nan nan nan nan nan nan nan nan nan nan nan nan nan nan nan nan nan nan nan nan nan nan nan nan nan nan nan nan nan nan nan nan nan nan nan nan nan nan nan nan nan nan nan nan nan nan nan nan nan nan nan nan nan nan nan nan nan nan nan nan nan
nan nan nan nan nan nan nan nan nan nan nan nan nan nan nan nan nan nan nan nan nan nan nan nan nan nan nan nan nan nan nan nan nan nan nan nan nan nan nan nan nan nan nan nan nan nan nan nan nan nan nan nan nan nan nan nan nan nan nan nan nan nan nan nan nan nan nan nan nan nan nan nan nan nan nan nan nan nan nan nan nan nan nan nan nan
nan nan nan nan nan nan nan nan nan nan nan nan nan nan nan nan nan nan nan nan nan nan nan nan nan nan nan nan nan nan nan nan nan nan nan nan nan nan nan nan nan nan nan nan nan nan nan nan nan nan nan nan nan nan nan nan nan nan nan nan nan nan nan nan nan nan nan nan nan nan nan nan nan nan nan nan nan nan nan nan nan nan nan nan nan
nan nan nan nan nan nan nan nan nan nan nan nan nan nan nan nan nan nan nan nan nan nan nan nan nan nan nan nan nan nan nan nan nan nan nan nan nan nan nan nan nan nan nan nan nan nan nan nan nan nan nan nan nan nan nan nan nan nan nan nan nan nan nan nan nan nan nan nan nan nan nan nan nan nan nan nan nan nan nan nan nan nan nan nan nan
nan nan nan nan nan nan nan nan nan nan nan nan nan nan nan nan nan nan nan nan nan nan nan nan nan nan nan nan nan nan nan nan nan nan nan nan nan nan nan nan nan nan nan nan nan nan nan nan nan nan nan nan nan nan nan nan nan nan nan nan nan nan nan nan nan nan nan nan nan nan nan nan nan nan nan nan nan nan nan nan nan nan nan nan nan
nan nan nan nan nan nan nan nan nan nan nan nan nan nan nan nan nan nan nan nan nan nan nan nan nan nan nan nan nan nan nan nan nan nan nan nan nan nan nan nan nan nan nan nan nan nan nan nan nan nan nan nan nan nan nan nan nan nan nan nan nan nan nan nan nan nan nan nan nan nan nan nan nan nan nan nan nan nan nan nan nan nan nan nan nan